sat.trackr.live / text

‹ back to catalog

STARLINK-11522 [DTC]

NORAD 63141 · 2025-043K

PAYLOAD ACTIVE UNKNOWN

§ Identity

Operator
Country
US
Launch date
2025-03-03
Launch site
AFETR
Launch vehicle
Mass (kg)
RCS (m²)

Purposes: comms

External: N2YO · Heavens-Above · Gunter

§ Orbital elements

Epoch: 2026-05-24T09:55:16.151232Z

Period
91.66 min
Inclination
43.0018°
Eccentricity
0.0001579
Mean motion
15.70969316 rev/d
Perigee alt
355.1 km
Apogee alt
357.2 km
Semi-major
6,734.3 km
B*
1.0502e-3
RAAN
154.0844°
Arg perigee
267.7019°
Mean anomaly
92.3668°
Rev number
7,120

§ Raw data

STARLINK-11522 [DTC]1 63141U 25043K   26144.41338138  .00137295  00000+0  10502-2 0  99932 63141  43.0018 154.0844 0001579 267.7019  92.3668 15.70969316 71204

JSON: /api/v1/satellites/63141 · /tle

For live sub-satellite position, see the globe view (requires WebGL).

§ Visibility from observer

Set your observer location to see the next 7 days of passes ≥ 10°. The values pass through the URL so the page stays shareable.

No JS? Fill the form by hand. The geolocation button needs JavaScript.